Theta_e
357 357 357 359 359 353 344 341 342 342 342 343 343 344 344 346 348 348 349 349 350 349 349 349 349 348 350 351 351 351 351 350 349 348 349 350 350 351 352 351 351 351 351 351 351 352 353 353 354 354 355 355 354 352 351 351 352 352 352 353 354 355 354
357 355 354 355 360 361 351 343 342 343 343 343 343 343 344 345 348 347 348 349 349 349 348 348 349 348 348 349 349 350 351 350 350 350 350 350 350 350 350 350 350 351 350 350 352 353 354 354 354 354 355 355 354 354 354 353 353 352 352 353 354 353 354
356 354 355 356 360 362 356 348 346 344 343 343 343 343 343 345 346 347 348 348 348 349 349 348 349 349 348 348 348 349 351 350 350 350 351 351 351 351 351 351 350 351 352 351 352 353 354 355 354 355 355 355 355 354 354 355 355 354 351 352 354 353 354
354 355 357 358 358 357 355 350 349 347 345 344 344 344 343 344 346 347 347 347 348 349 349 348 349 349 349 349 348 348 349 350 349 350 351 351 352 352 352 352 350 351 352 353 353 354 354 354 354 355 355 355 355 355 354 355 355 355 353 352 353 354 354
355 356 357 357 357 358 355 352 351 349 347 345 344 345 344 344 346 347 347 347 348 348 348 348 349 349 349 350 348 347 347 349 350 349 350 351 352 352 353 351 350 350 351 352 353 355 355 355 355 355 356 355 355 355 355 355 355 356 356 353 353 354 354
355 355 356 356 358 359 356 353 352 350 348 348 347 347 346 346 347 349 348 349 349 349 349 351 351 351 351 351 350 348 347 349 348 348 349 351 353 353 354 352 352 351 351 351 352 353 355 354 354 354 355 356 356 355 356 356 355 356 357 355 354 353 354
353 354 354 354 356 357 356 354 353 351 351 350 350 349 348 349 350 350 350 350 349 350 350 352 353 352 352 352 351 350 350 350 350 349 349 351 352 353 353 354 354 354 354 353 353 354 354 355 354 354 355 355 356 355 355 355 355 355 356 357 355 353 353
350 352 354 354 354 355 356 355 354 353 352 351 351 350 350 351 352 353 352 351 351 350 351 351 351 352 353 353 353 352 352 352 351 350 350 351 351 352 353 354 354 355 355 356 355 355 354 353 354 353 354 355 356 354 355 355 356 355 356 356 355 354 353
344 345 348 351 352 353 353 352 352 353 353 353 353 352 352 352 352 354 354 352 352 352 352 351 350 352 353 353 353 353 353 353 353 351 351 351 351 352 353 353 354 354 355 356 356 356 354 353 353 353 353 354 355 354 354 355 355 355 356 356 356 354 354
340 340 342 344 346 349 349 349 348 350 350 352 354 353 352 350 350 353 354 353 353 353 353 352 352 353 354 353 354 355 354 354 353 353 352 353 353 353 354 354 353 354 354 354 355 355 355 355 354 353 352 353 353 354 354 354 355 355 356 356 356 355 354
338 338 339 339 339 341 344 345 345 345 346 347 351 352 351 350 350 352 352 351 351 353 354 353 353 353 355 355 355 355 355 355 354 355 354 355 355 355 355 355 355 355 354 353 354 355 355 355 354 353 353 352 352 353 354 354 355 355 355 355 355 355 355
336 336 337 338 337 336 338 340 339 339 340 342 346 349 350 350 351 351 351 349 350 352 353 353 353 353 354 355 356 355 355 355 354 355 355 354 355 355 355 355 355 355 355 354 354 355 354 355 354 353 353 353 352 352 353 354 354 354 354 354 354 354 355
334 334 334 335 334 334 335 335 335 336 336 338 341 344 347 348 349 351 350 349 350 351 352 352 352 352 353 355 355 355 355 355 354 355 354 354 354 354 355 355 355 354 354 353 352 353 354 354 354 353 353 353 353 351 352 353 354 354 354 354 353 353 354
331 331 332 332 332 332 333 332 333 334 335 335 337 340 344 346 348 349 349 350 350 350 350 351 351 351 352 351 352 354 355 355 355 354 354 354 353 353 354 354 354 354 353 351 350 350 351 352 352 353 352 353 353 352 352 352 352 353 353 354 354 353 353
329 329 330 331 331 332 332 331 332 333 334 335 337 339 341 343 345 346 348 349 349 348 349 350 349 350 350 348 349 349 351 351 353 354 354 354 354 354 355 354 353 354 353 352 351 350 349 349 350 351 351 352 352 352 352 351 352 352 351 352 352 353 353
328 327 328 329 329 329 329 329 330 331 333 335 337 339 340 342 343 346 348 348 348 348 349 348 348 349 350 349 348 347 348 348 349 351 351 351 352 353 353 353 354 354 354 354 354 352 350 348 348 349 350 350 350 351 351 352 351 350 350 350 351 352 353
326 326 326 326 326 327 327 328 329 329 332 334 336 338 339 340 343 345 347 347 346 347 349 349 349 349 349 350 349 348 349 349 349 350 349 350 351 350 351 352 352 352 352 352 352 353 350 348 348 349 350 350 350 350 351 351 351 351 350 350 350 351 352
326 325 324 324 325 325 326 326 327 328 330 331 334 336 338 339 342 343 344 344 344 344 346 347 348 348 347 348 348 348 349 350 349 350 350 350 351 351 352 353 352 352 352 352 351 351 351 349 350 351 351 351 350 350 350 350 351 350 350 350 350 350 352
326 325 324 324 325 325 324 323 325 327 327 328 331 333 335 337 338 340 340 341 342 342 343 344 345 345 346 347 346 346 346 346 347 347 348 349 349 350 351 353 353 353 353 354 353 352 353 352 352 353 352 351 350 350 349 350 350 350 349 350 350 350 352
325 325 324 324 324 324 322 322 324 325 325 326 329 330 332 333 334 335 335 336 339 340 341 342 342 342 342 342 342 342 343 342 343 342 343 343 344 346 348 349 351 352 352 353 354 355 355 354 354 353 352 352 352 351 350 349 349 350 350 350 351 351 352
326 325 324 324 324 323 323 322 323 323 323 326 329 329 329 330 331 331 330 330 331 333 333 333 333 333 334 334 334 335 336 336 337 337 336 336 337 341 344 346 348 350 349 350 351 353 353 354 354 355 354 354 354 352 352 351 351 351 351 351 351 352 352
326 324 322 323 324 323 322 321 322 323 323 323 326 328 330 331 331 330 330 327 324 324 323 323 323 323 324 326 327 328 329 331 334 334 333 333 334 336 339 340 341 342 343 343 343 345 348 350 351 352 353 353 354 353 354 353 353 353 352 352 351 351 351
322 320 320 320 320 320 320 321 322 323 323 323 324 327 330 330 328 327 327 324 323 323 323 323 323 322 321 321 322 324 325 327 329 329 327 327 329 330 332 334 336 336 337 337 337 338 341 344 347 348 349 350 351 351 352 352 353 353 353 353 353 352 352
317 317 317 317 318 319 320 321 323 322 322 323 323 325 326 326 325 324 324 324 324 324 324 324 324 324 322 321 322 324 324 324 324 324 322 322 322 322 324 327 330 331 332 334 335 337 337 338 340 342 344 345 345 345 346 349 351 352 353 353 353 353 354
315 316 316 316 318 319 319 320 321 321 321 322 322 323 324 323 324 324 323 323 323 322 323 323 323 323 323 322 323 323 323 323 322 322 321 320 319 320 322 323 324 325 327 329 332 335 336 337 338 337 336 336 336 337 338 341 344 346 348 349 349 349 352
315 315 316 317 317 318 318 319 320 320 320 321 322 322 323 323 323 323 322 322 321 321 321 321 321 322 322 322 322 323 322 321 321 321 321 321 321 322 323 324 324 324 325 326 327 329 331 334 336 336 334 333 334 336 335 336 339 342 343 343 344 346 349
315 316 316 317 317 317 318 318 319 320 320 321 321 321 321 322 322 321 321 320 320 320 320 320 320 320 320 321 321 322 321 321 322 322 323 323 324 323 324 324 324 324 324 325 326 327 328 330 331 333 334 334 337 338 338 338 343 345 344 345 347 349 351
317 318 317 318 317 318 318 318 319 320 320 320 321 321 320 321 320 320 320 319 319 319 319 319 319 320 320 320 321 321 321 322 323 323 323 323 323 324 324 324 324 324 324 325 326 327 328 329 331 333 334 335 338 340 341 344 347 343 336 337 341 342 345
316 317 318 318 317 317 318 317 318 318 318 319 320 320 320 320 319 318 318 318 318 318 318 319 319 320 320 320 320 320 320 321 322 321 321 321 322 322 322 322 322 323 323 323 324 324 324 325 326 328 328 329 331 334 335 337 337 331 323 324 326 327 332
316 316 317 317 317 317 317 317 317 317 317 317 318 318 318 318 317 316 316 317 317 317 317 318 318 319 318 318 318 318 318 319 320 320 319 320 320 320 321 320 321 321 321 321 322 322 323 323 323 324 324 323 325 326 327 327 328 326 323 322 322 322 326
315 316 316 317 317 317 317 316 316 315 316 316 316 316 316 316 316 316 316 316 317 317 317 317 316 316 316 316 316 317 317 317 318 318 318 318 318 318 318 318 318 319 319 319 319 320 320 321 321 321 321 322 322 323 324 325 325 325 325 324 323 325 326
315 316 316 316 316 316 316 315 314 314 314 315 315 315 315 315 315 315 315 315 315 316 316 316 315 315 314 314 315 315 315 316 316 316 315 315 315 315 315 315 316 316 316 316 317 318 318 319 320 320 320 321 321 321 322 323 323 324 324 325 325 326 326
315 315 315 315 315 315 315 314 313 313 314 314 315 314 314 314 314 313 313 313 314 314 314 314 314 314 314 314 314 314 314 314 315 315 314 315 315 315 315 315 315 316 316 316 317 317 318 318 319 319 320 320 320 320 320 321 321 322 322 324 325 325 324
314 314 315 315 315 314 313 312 312 313 314 313 314 313 313 313 313 312 312 312 313 313 313 313 313 314 314 313 313 313 313 313 314 315 315 314 315 315 315 315 315 315 316 317 317 318 318 318 318 319 319 319 319 320 321 321 321 322 323 323 324 324 325
313 314 314 314 314 313 312 311 312 313 313 313 313 313 313 312 312 312 311 311 312 312 312 312 313 313 313 313 312 312 312 313 314 314 314 314 314 314 314 314 314 314 314 315 316 316 317 317 317 317 318 318 319 320 321 322 322 323 323 323 323 323 323
313 314 314 314 313 312 311 311 313 313 312 312 311 311 311 311 310 310 311 311 312 312 311 312 312 312 311 311 311 311 312 312 313 313 313 313 313 313 313 312 312 312 312 313 313 313 313 314 314 314 316 318 319 320 320 321 321 322 322 323 323 323 322
313 313 314 313 312 311 311 312 312 312 311 310 310 310 310 310 310 310 311 311 312 311 311 311 311 311 311 310 310 311 312 312 312 312 312 312 312 312 311 311 311 311 311 312 312 311 311 312 312 313 315 316 318 319 319 320 319 320 320 321 322 322 322
313 313 313 312 311 311 312 312 312 311 310 309 309 309 310 310 310 311 311 311 311 311 311 311 310 310 310 310 310 311 312 311 311 310 310 311 311 311 311 312 312 312 312 311 312 312 311 312 313 314 315 315 316 317 317 317 317 317 319 321 322 322 322
Wind_Speed
4 2 2 4 4 1 7 15 20 23 25 27 28 30 31 31 32 32 33 34 34 32 31 30 27 28 30 29 26 22 20 19 20 21 19 18 18 18 17 16 15 16 17 18 17 15 13 12 12 12 12 11 10 9 10 10 9 9 9 9 9 8 7
4 5 6 6 5 3 3 14 19 21 25 27 28 29 30 31 32 33 33 33 33 32 32 31 29 28 29 29 26 23 22 21 20 20 19 18 18 18 17 16 15 14 16 17 16 15 14 12 12 12 12 11 10 10 10 9 9 9 9 10 10 9 8
7 8 6 4 3 1 3 9 17 21 24 26 27 29 31 32 34 34 34 34 33 32 32 32 31 30 29 29 27 25 24 23 21 20 19 18 18 17 17 17 16 14 15 16 15 14 14 13 13 12 12 12 11 10 11 10 9 9 9 10 10 10 9
10 8 6 5 6 6 4 7 14 18 21 24 27 29 32 33 34 35 35 34 34 32 32 33 32 32 31 30 29 28 26 25 23 22 20 18 17 17 17 18 17 16 16 16 15 14 14 14 14 13 13 13 12 11 12 11 10 9 10 11 11 11 10
11 9 8 6 6 6 6 8 13 16 20 24 26 26 28 29 31 33 34 35 36 35 34 33 32 32 32 31 31 30 28 26 25 23 22 19 16 16 17 18 19 18 18 17 16 16 15 15 15 15 15 15 14 13 13 13 12 11 10 11 12 11 11
10 9 9 8 7 6 5 7 9 13 18 21 21 20 21 21 22 24 26 27 28 26 25 25 26 27 28 28 28 28 27 26 25 24 24 22 19 17 17 18 18 19 18 17 17 17 17 16 16 17 16 16 15 15 15 14 13 12 11 11 12 12 12
7 6 6 6 5 4 4 4 3 6 11 13 14 15 15 13 12 13 15 14 12 12 15 20 23 24 23 23 24 25 25 25 24 24 24 24 22 19 18 18 17 18 18 17 17 18 18 18 17 17 17 17 17 17 16 15 14 13 13 12 12 12 12
6 5 4 4 4 3 2 2 2 1 6 8 10 12 12 11 10 10 13 15 15 17 21 26 27 25 22 23 24 25 25 24 23 23 23 23 22 20 19 18 18 17 17 18 18 18 18 19 18 18 18 18 19 18 17 16 15 14 14 14 13 12 12
7 5 4 5 5 4 5 7 7 6 2 4 9 12 13 15 13 11 14 19 22 23 24 28 28 24 23 25 26 26 26 25 24 24 23 23 23 22 20 20 19 19 19 19 18 18 18 19 19 19 19 19 19 19 19 18 17 16 16 16 15 14 13
8 7 7 6 5 6 8 8 7 7 6 3 9 14 17 18 17 17 16 19 21 22 24 26 25 22 23 27 27 26 26 26 25 25 25 24 23 23 22 21 21 21 21 20 20 20 20 20 19 20 20 20 19 20 20 19 18 17 17 17 17 16 15
7 7 7 7 7 7 8 8 7 8 7 6 10 16 19 19 20 24 21 20 19 20 22 24 24 22 23 27 29 27 26 25 24 25 25 25 24 23 22 21 21 21 21 22 22 23 22 21 20 20 21 21 21 20 21 20 19 19 19 18 18 18 17
5 6 8 9 8 8 7 8 9 10 12 11 12 15 18 18 18 21 19 17 17 20 22 22 22 21 21 24 27 29 27 25 24 23 23 24 24 23 21 20 20 21 21 21 22 23 24 23 23 22 22 22 22 21 21 21 21 20 20 19 19 19 19
5 6 7 8 8 8 7 8 9 12 15 14 12 11 12 13 12 13 16 18 21 24 23 22 22 22 21 21 23 25 26 25 25 23 22 21 21 21 20 20 20 20 19 18 18 20 22 23 24 24 23 23 23 23 22 22 23 23 22 21 20 20 20
7 6 6 7 8 8 7 7 8 11 15 15 14 13 12 11 11 12 14 17 21 22 22 23 23 21 19 17 16 18 20 21 21 20 19 19 19 19 19 21 21 20 19 18 16 17 18 19 21 22 23 24 24 24 24 24 25 25 24 23 22 22 22
7 6 6 7 7 7 8 7 7 11 13 14 14 15 14 13 13 15 15 15 16 16 17 19 20 19 17 15 13 12 12 15 17 16 15 15 14 15 16 18 19 19 19 19 19 19 18 18 19 20 22 23 24 25 26 27 28 27 26 25 24 24 24
7 6 6 6 6 7 7 7 9 12 13 13 13 14 14 14 14 15 16 16 15 14 15 17 19 18 15 14 13 9 8 11 13 13 13 12 11 11 12 14 16 17 17 18 19 20 21 21 20 20 22 23 23 23 25 28 29 29 27 26 26 26 25
7 7 6 6 6 7 7 8 10 13 13 12 12 13 14 15 16 16 15 14 13 13 15 17 15 11 7 7 9 9 7 6 8 8 8 8 9 9 9 10 12 14 16 16 17 19 21 21 20 20 21 23 24 24 24 27 29 29 29 28 27 27 27
8 7 6 6 6 6 6 7 10 13 13 12 11 11 13 14 16 17 17 16 15 15 14 13 12 10 8 8 9 9 9 8 6 4 4 4 5 5 5 6 7 9 11 13 15 17 18 19 19 18 18 19 22 23 24 25 26 27 29 29 29 29 28
8 7 6 6 5 5 6 7 10 13 13 13 12 12 13 14 15 15 16 17 16 16 16 15 14 14 13 12 13 12 11 11 9 7 7 5 3 3 4 5 4 4 6 8 10 12 14 16 16 16 16 16 17 19 22 24 25 25 27 28 29 29 28
8 7 7 7 6 6 8 11 12 12 13 14 15 16 16 17 17 17 17 18 18 19 19 17 15 15 14 14 14 14 13 11 10 9 8 7 5 3 2 3 3 2 1 4 6 7 8 10 11 12 12 13 13 13 15 17 19 22 24 25 27 28 27
8 8 8 7 6 7 11 14 14 13 14 16 17 17 17 17 19 20 19 19 20 20 20 18 16 16 16 15 15 14 13 12 12 12 11 9 8 6 4 3 2 2 1 2 3 3 2 3 5 7 8 9 9 9 9 9 10 12 15 18 21 23 24
7 7 6 6 8 9 12 15 15 15 14 15 15 15 15 15 17 18 19 20 20 20 19 18 18 18 17 17 16 15 13 12 12 13 12 11 11 10 8 6 5 4 3 5 6 5 4 2 2 3 4 5 6 6 6 5 4 5 7 10 14 17 19
9 9 10 11 14 14 15 17 19 18 18 17 16 16 15 14 16 18 19 19 19 18 17 18 18 17 17 17 16 15 14 13 13 13 13 12 11 11 10 9 8 7 7 7 8 7 7 7 6 6 6 5 3 3 3 3 4 4 4 7 10 13 16
14 16 17 18 19 19 20 20 21 21 21 20 19 18 17 17 17 19 19 18 18 17 17 17 17 16 15 16 15 14 13 13 13 12 12 12 12 11 10 9 9 9 8 8 8 6 5 6 8 9 9 8 5 4 6 5 4 5 5 4 8 12 16
16 19 20 22 23 23 22 21 21 21 21 21 19 17 18 17 17 18 18 17 16 17 17 17 16 15 14 13 13 13 13 12 12 12 12 12 12 11 11 10 10 10 9 8 8 7 5 5 5 7 8 8 5 6 8 8 7 7 6 4 5 11 15
17 20 22 23 25 24 23 21 20 19 19 19 17 16 15 15 16 16 16 15 16 17 17 16 14 13 12 12 12 12 12 12 12 12 12 12 12 11 11 10 10 10 10 10 10 10 8 8 7 8 8 7 6 6 8 9 9 9 8 6 6 9 15
19 21 22 23 24 24 24 22 21 20 17 15 14 13 13 13 14 15 14 14 16 16 15 13 12 11 11 11 12 12 13 13 13 12 12 12 11 11 11 11 11 11 11 11 11 11 11 11 11 10 10 9 9 8 6 6 7 8 8 7 6 7 12
19 20 21 22 22 24 24 23 22 21 18 15 13 12 10 10 12 13 12 13 15 14 11 10 10 10 10 11 12 13 13 13 14 14 13 13 12 12 12 13 13 13 13 13 12 12 12 12 12 12 11 11 11 11 10 8 7 7 9 9 8 8 11
18 19 20 21 21 22 23 22 20 19 18 15 14 12 10 10 11 11 11 12 13 11 9 9 9 9 10 11 12 13 13 13 14 15 15 14 14 13 14 14 14 14 15 15 15 15 15 15 15 14 14 13 12 12 12 11 10 10 11 11 10 9 10
19 20 20 21 21 21 22 22 20 18 16 13 12 11 10 10 10 10 10 10 9 8 8 8 8 9 10 11 12 13 13 13 14 14 15 15 14 14 15 15 15 16 16 17 17 17 18 18 18 17 17 17 15 13 11 10 10 10 11 12 12 11 11
20 21 21 21 20 19 20 20 19 17 15 12 11 10 10 10 10 11 11 9 7 7 8 8 8 9 10 11 12 13 13 13 13 14 14 15 15 16 16 16 17 17 17 18 18 19 19 19 19 20 20 19 19 18 15 13 12 12 13 14 13 12 12
20 22 22 21 20 18 18 17 16 15 14 12 11 10 10 10 11 12 12 9 8 7 7 7 9 10 10 11 11 12 13 13 14 15 14 14 15 16 16 17 17 17 18 18 18 19 19 20 20 21 21 22 22 22 20 18 17 16 16 16 16 15 15
19 20 21 21 20 18 17 16 15 14 14 12 11 10 10 11 11 12 11 9 8 8 7 8 9 9 10 10 11 12 13 14 15 15 15 15 15 15 15 16 16 17 17 18 19 19 19 20 20 21 21 22 23 24 23 22 21 20 20 20 19 19 20
17 19 20 21 20 17 15 15 15 14 13 12 11 10 9 9 9 9 8 8 7 7 6 7 8 8 9 10 11 12 13 14 15 15 15 15 15 15 15 16 16 17 16 16 16 17 18 19 19 19 20 21 22 23 23 23 22 22 22 21 21 22 22
17 19 20 20 18 16 15 15 15 15 14 13 10 8 7 6 5 5 6 6 6 5 6 7 7 8 9 10 11 12 13 14 14 15 16 17 17 17 16 16 16 17 16 15 14 14 15 16 17 17 18 18 19 20 22 23 22 21 21 20 20 21 23
19 19 20 19 16 14 14 15 15 16 15 12 9 7 6 4 3 3 3 4 4 5 5 6 6 8 9 10 12 13 13 14 14 15 17 18 19 20 19 18 17 17 17 16 15 14 14 15 16 16 16 16 17 17 19 21 22 21 21 21 21 21 22
20 20 20 19 16 14 14 16 16 16 14 11 8 6 5 5 4 4 3 4 4 5 5 5 6 7 8 9 11 11 12 13 14 15 16 17 19 21 22 23 22 20 18 17 18 18 18 17 16 14 12 13 15 16 17 18 20 21 21 21 22 22 23
21 21 20 18 16 16 17 18 17 15 12 10 8 6 6 5 5 4 3 3 4 5 5 6 6 6 7 8 9 9 10 11 13 14 15 16 18 19 20 22 23 23 22 21 20 20 19 18 17 16 14 13 14 15 17 18 20 20 20 19 20 21 22
Wind_Direction
166 160 111 66 59 145 191 188 184 181 182 183 184 185 185 187 189 190 192 195 198 200 201 203 203 205 207 212 219 222 220 217 212 210 213 216 218 219 224 230 235 240 237 229 228 231 235 237 240 244 245 240 238 234 227 226 231 239 244 243 242 248 250
137 79 57 53 43 18 210 193 187 186 186 186 186 186 186 188 189 190 193 196 199 201 201 202 203 204 207 212 217 220 217 216 214 213 215 217 220 224 231 237 242 243 237 230 230 234 237 239 242 246 246 241 237 233 225 222 227 236 243 244 245 250 251
97 85 80 92 127 177 220 186 183 189 191 189 188 188 188 191 192 192 194 196 198 201 201 202 203 205 208 211 215 218 218 217 216 215 216 219 223 228 236 241 241 239 233 229 231 235 238 243 244 246 247 241 236 235 232 230 232 236 238 239 243 246 245
110 119 134 152 171 190 213 185 176 181 190 194 193 192 192 193 194 195 196 197 197 199 201 202 204 206 209 211 214 216 217 218 220 219 218 220 225 232 239 241 236 233 232 232 233 235 240 244 244 245 246 242 238 240 241 239 238 238 235 235 237 240 240
133 140 149 161 175 192 206 196 177 171 184 195 197 197 197 195 196 197 197 199 199 201 203 204 205 207 210 212 214 216 218 220 223 223 221 221 225 231 236 236 233 233 234 235 236 236 238 243 243 243 243 241 241 243 244 242 240 238 237 235 235 235 236
147 159 162 167 182 196 202 201 186 175 183 191 193 195 197 196 196 199 201 201 199 197 196 197 201 205 209 211 213 216 218 221 225 225 221 219 221 224 228 230 232 235 236 237 240 238 237 241 244 244 242 242 243 243 243 243 240 238 238 239 239 237 236
148 160 155 157 179 204 214 215 203 191 193 190 182 183 187 185 183 190 197 193 184 185 188 193 200 204 206 210 213 216 219 222 225 225 223 222 224 226 226 228 232 235 236 239 242 241 239 241 245 246 245 245 246 245 242 242 240 238 238 240 243 244 242
137 146 140 147 159 166 163 108 67 168 206 191 171 169 169 153 141 155 166 166 170 187 202 208 209 207 207 211 213 215 218 220 222 223 224 226 230 232 232 232 235 237 238 240 244 244 241 241 245 247 248 248 248 247 244 243 243 240 240 242 243 245 246
116 114 109 124 134 117 97 79 65 63 88 155 152 151 144 135 140 152 150 160 175 186 200 213 215 211 211 215 215 214 215 218 221 222 223 226 229 232 233 235 238 240 241 242 244 245 244 245 248 249 250 250 249 248 245 245 247 246 246 247 246 246 247
96 91 86 88 89 89 89 80 72 73 61 86 132 131 128 136 166 183 161 154 171 185 197 208 209 208 214 217 215 213 213 216 219 220 221 224 228 230 232 234 237 240 243 243 244 245 247 250 252 250 250 250 249 248 246 246 248 249 250 250 250 250 252
87 89 83 79 74 76 86 79 69 73 66 71 111 124 130 142 174 193 176 148 155 182 198 204 204 206 213 217 215 212 212 213 215 218 220 221 225 228 230 231 235 239 242 244 245 247 248 249 251 251 251 251 251 250 247 247 248 250 251 252 251 252 256
89 92 89 87 81 73 80 81 69 65 65 73 100 124 142 153 171 187 177 153 164 191 199 201 204 205 208 214 216 214 212 212 214 216 219 222 224 225 227 229 232 236 241 245 248 249 249 248 249 250 250 252 253 252 249 246 247 249 252 254 254 253 255
80 84 87 90 88 80 74 71 66 66 69 75 89 112 136 151 156 163 165 171 189 201 200 201 208 210 208 212 215 214 213 215 218 219 220 224 226 226 227 228 230 233 236 241 246 249 249 249 250 251 250 251 252 251 250 247 246 248 251 253 254 254 254
85 83 81 83 88 88 82 68 63 69 75 81 88 96 113 126 124 133 159 182 192 197 201 207 214 214 209 209 212 214 215 216 220 223 224 227 230 231 232 231 232 234 235 238 241 245 247 248 250 252 252 253 253 252 251 249 248 248 249 251 253 253 254
92 88 87 88 88 88 87 82 77 77 78 84 90 94 102 112 117 130 154 177 182 183 192 205 214 215 209 210 219 227 231 227 221 218 221 225 229 232 234 234 235 238 240 241 243 246 247 247 249 251 251 253 254 253 251 250 250 251 251 252 252 252 254
95 92 89 90 92 93 95 94 91 88 84 85 88 91 94 98 107 124 145 164 167 161 164 179 196 204 199 198 207 218 242 248 238 227 224 227 231 233 235 235 237 241 245 246 246 246 246 246 249 252 252 252 253 254 253 250 251 253 254 255 255 255 255
99 97 92 92 97 99 100 101 99 97 94 89 87 90 91 93 99 108 116 126 130 132 147 163 171 171 157 156 175 182 189 223 240 236 227 227 232 234 236 238 240 242 244 245 245 245 244 243 247 252 255 254 252 254 253 251 252 254 255 256 256 256 256
113 109 106 104 102 99 99 99 98 99 101 99 95 96 97 97 102 104 102 101 103 112 132 147 141 133 132 133 141 147 147 159 181 181 163 177 197 200 205 222 236 242 244 243 242 241 242 242 244 249 254 253 250 251 252 252 253 254 256 256 256 255 256
118 115 113 109 103 97 92 92 99 104 102 101 103 107 109 107 106 104 102 105 110 113 120 124 123 125 130 126 122 119 118 126 133 123 110 109 125 146 158 168 189 228 254 256 246 239 240 242 243 246 250 251 249 249 250 253 254 255 256 256 256 256 256
116 116 115 115 113 102 90 89 102 112 107 104 109 111 109 109 107 104 101 104 108 109 111 113 110 105 100 96 95 96 98 101 99 91 81 71 65 65 78 101 120 143 230 276 258 243 243 246 245 246 246 247 248 247 247 251 254 255 256 256 257 258 259
119 118 118 122 119 106 97 95 102 111 109 110 114 112 107 105 105 103 101 101 99 96 97 98 92 87 83 78 74 75 77 76 73 71 65 57 51 51 47 33 41 97 102 319 284 247 247 257 253 253 249 247 249 249 247 249 254 257 258 256 256 257 259
121 115 115 120 109 96 94 97 103 110 112 113 118 119 114 109 106 105 102 101 97 91 87 85 78 74 73 68 63 61 61 62 64 62 57 53 50 49 47 28 11 22 16 338 312 287 286 304 308 297 277 257 254 257 253 251 258 269 272 269 262 258 258
117 112 106 104 98 91 92 97 102 106 106 104 109 119 123 114 107 103 100 96 92 87 81 75 68 65 62 58 56 56 55 56 59 55 49 47 45 41 37 27 15 16 13 352 333 314 295 286 287 295 297 291 285 291 287 262 248 260 284 296 292 280 270
111 110 107 103 99 94 93 96 98 98 97 95 96 107 118 116 107 100 92 86 83 80 73 66 59 56 54 50 50 52 52 52 52 48 40 35 32 28 23 21 18 14 7 348 337 336 318 296 284 280 284 286 294 329 329 303 269 257 255 280 307 305 296
107 106 106 106 104 99 96 98 98 95 93 92 92 100 111 113 107 97 86 78 75 69 61 55 51 48 47 46 46 46 46 45 41 38 33 27 24 21 15 14 13 10 6 356 346 344 338 322 304 293 293 292 302 335 336 326 313 291 273 281 318 316 310
115 112 109 107 107 107 105 104 101 94 88 88 94 102 110 111 105 94 83 75 70 61 52 46 42 39 38 37 38 38 38 39 35 32 31 27 25 24 20 15 10 6 5 6 4 360 354 346 335 326 326 329 339 346 340 337 334 320 306 314 324 313 306
114 112 111 111 112 111 108 104 100 96 92 94 99 101 105 107 99 89 81 73 64 55 48 41 34 33 34 32 34 35 36 36 34 31 32 29 26 27 27 24 20 15 10 6 5 5 5 2 354 345 342 345 351 358 356 351 348 340 334 340 347 333 315
109 107 109 110 111 111 108 102 100 98 97 99 103 101 103 104 91 80 74 67 57 49 45 41 37 37 38 36 36 35 34 35 34 34 36 34 32 33 35 34 33 31 28 24 22 23 25 24 20 15 13 14 17 20 22 25 30 29 21 20 24 9 338
113 110 112 111 110 113 111 103 98 96 94 96 98 97 99 97 84 72 65 58 51 45 42 40 38 40 40 39 38 36 34 35 34 34 35 33 31 32 32 31 33 33 31 28 27 27 28 27 26 24 22 25 30 32 31 33 34 29 23 24 24 7 339
118 115 116 115 114 117 114 107 101 96 92 90 88 86 85 85 81 72 61 50 42 44 46 40 37 37 37 36 36 33 34 34 31 28 27 26 24 24 22 20 20 22 22 20 20 20 18 16 15 13 11 11 13 13 15 16 10 2 3 10 13 3 343
121 119 118 118 119 119 116 111 108 102 95 89 86 83 78 79 81 72 58 46 40 45 48 43 38 35 33 33 32 29 29 30 27 22 20 19 18 16 15 12 10 10 10 9 10 11 9 7 4 3 2 0 358 356 354 353 349 348 352 358 1 356 345
121 123 123 121 121 122 119 115 111 107 103 98 95 93 86 82 82 74 66 60 55 50 45 41 38 34 30 27 24 22 21 22 20 15 11 11 11 11 11 9 6 6 5 5 6 6 3 1 359 357 356 354 351 348 345 343 342 344 347 350 350 347 342
128 130 129 128 128 128 125 120 115 113 111 107 103 101 95 88 83 77 71 64 56 46 37 33 32 30 27 22 16 13 12 13 13 10 8 9 9 7 9 10 8 6 5 5 5 3 0 359 356 355 353 349 345 343 341 338 338 340 344 344 342 339 337
134 134 133 135 137 134 128 125 125 124 120 114 111 109 102 92 81 70 59 51 44 36 30 30 28 23 21 17 11 7 7 7 7 8 8 10 9 7 7 8 7 5 4 5 4 359 355 353 351 350 348 343 340 339 337 336 338 340 342 342 338 335 334
140 141 142 143 142 137 132 132 135 134 128 124 124 123 113 97 74 42 26 26 23 18 25 31 25 16 11 8 5 4 2 0 0 1 2 1 360 359 358 357 356 354 351 354 357 355 350 345 342 341 339 336 335 334 332 332 335 338 337 335 332 331 331
149 150 151 150 146 143 140 139 141 139 133 130 129 124 113 94 65 31 18 26 28 25 28 30 22 13 7 1 357 357 357 356 354 354 354 353 351 349 345 343 343 344 342 341 341 340 340 337 334 332 330 328 329 330 327 327 330 331 329 325 322 322 323
156 156 157 156 154 150 145 144 145 143 136 132 129 122 110 97 86 76 58 45 39 33 30 29 24 17 9 2 357 355 354 353 350 349 349 348 346 344 342 339 337 338 340 340 338 337 337 336 335 335 330 322 321 321 320 321 324 324 324 323 320 317 317
164 162 162 163 160 153 149 150 153 152 145 142 139 129 117 110 106 104 96 76 61 47 36 29 24 16 8 2 358 352 347 342 341 343 344 343 341 341 340 339 337 335 336 338 339 338 337 337 338 339 337 330 324 321 319 320 320 319 319 321 321 320 319